Regional Weather Roundup
Issued by NWS

Home | Current Version | Previous Version | Graphics & Text | Print | Product List | Glossary Off
Versions: 1 2 3 4 5 6 7 8 9 10 11 12 13 14 15 16 17 18 19 20 21 22 23 24 25 26 27 28 29 30 31 32 33 34 35 36 37 38 39 40 41 42 43 44 45 46 47 48 49 50

000
ASUS43 KMKX 261700
RWRWI

WISCONSIN REGIONAL WEATHER ROUNDUP
NATIONAL WEATHER SERVICE MILWAUKEE/SULLIVAN WI
1200 PM CDT WED APR 26 2017

NOTE: "FAIR" INDICATES FEW OR NO CLOUDS BELOW 12,000 FEET WITH NO
SIGNIFICANT WEATHER AND/OR OBSTRUCTIONS TO VISIBILITY.

WIZ001-002-006>008-014>016-023>028-261800-
NORTHWEST WISCONSIN

CITY           SKY/WX    TMP DP  RH WIND       PRES   REMARKS
SUPERIOR ARPT  LGT SNOW  33  32  96 NE16      29.59F WCI  22
ASHLAND        LGT RAIN  33  31  92 NE18G29   29.55S FOG     WCI  22
HAYWARD        FRZ RAIN  33  30  88 N15       29.48F FOG     WCI  23
SIREN          MIX PCPN  35  33  94 NE14G21   29.51F WCI  25
CUMBERLAND     RAIN      32  32 100 N12       29.47R WCI  23
RICE LAKE      DRIZZLE   35  34  94 N12G18    29.47S WCI  27
CHETEK         CLOUDY    37  36  97 N5        29.45S WCI  33
LADYSMITH      RAIN      37  36  96 N10       29.44F WCI  30
EAU CLAIRE     CLOUDY    39  37  92 NW10      29.44R WCI  32
MENOMONIE      CLOUDY    38  38 100 NW8       29.46R FOG     WCI  32
NEW RICHMOND   DRIZZLE   36  35  96 N8        29.50R WCI  29
OSCEOLA        DRIZZLE   37  37 100 N8        29.54R WCI  31
$$

WIZ003>005-009-010-017-018-261800-
NORTH CENTRAL WISCONSIN

CITY           SKY/WX    TMP DP  RH WIND       PRES   REMARKS
MANITOWISH WTR RAIN      34  34 100 N8        29.43S WCI  27
ARBOR VITAE    RAIN      39  38  95 N7        29.40F WCI  34
WOODRUFF       RAIN      39  38  95 N7        29.40F WCI  34
RHINELANDER    RAIN      50  50 100 VRB3      29.37F FOG
EAGLE RIVER    LGT RAIN  41  41 100 NE9       29.38F
LAND O LAKES   LGT RAIN  38  38 100 N9        29.43F WCI  31
PHILLIPS       RAIN      36  36 100 N12       29.41F WCI  28
TOMAHAWK       LGT RAIN  47  46  96 W7        29.39R
MEDFORD        RAIN      48  47  97 N6        29.37S
MERRILL        HVY RAIN  53  53 100 CALM      29.38R
$$

WIZ029-030-035-036-043>047-261800-
CENTRAL WISCONSIN

CITY           SKY/WX    TMP DP  RH WIND       PRES   REMARKS
WAUSAU         RAIN      54  54 100 SE5       29.35S FOG
MOSINEE        RAIN      55  55 100 S5        29.37R
MARSHFIELD     RAIN      57  55  93 S7        29.34F FOG
STEVENS POINT  LGT RAIN  56  56 100 S8        29.37S
WAUPACA        LGT RAIN  60  59  97 SE5       29.38R
WAUTOMA        LGT RAIN  60  58  92 S7        29.38
WISC RAPIDS    LGT RAIN  60  60 100 S6        29.36F
CAMP DOUGLAS   LGT RAIN  61  59  94 SW7       29.36F
$$

WIZ011>013-019>022-031-037>040-048>050-261800-
NORTHEAST WISCONSIN

CITY           SKY/WX    TMP DP  RH WIND       PRES   REMARKS
ANTIGO         LGT RAIN  52  52 100 S8        29.38S
SHAWANO        CLOUDY    59  56  89 E3        29.37F
OCONTO         CLOUDY    60  53  77 SE6       29.37F
STURGEON BAY   CLOUDY    55  51  86 S18G25    29.39F
GREEN BAY      LGT RAIN  63  59  87 SE7       29.37F
MANITOWOC      NOT AVBL
APPLETON       RAIN      61  57  88 S8        29.37S
CLINTONVILLE   RAIN      54  54 100 NE3       29.37F
OSHKOSH        LGT RAIN  61  58  90 SW7       29.38R FOG
$$

WIZ032>034-041-042-053>061-261800-
SOUTHWEST WISCONSIN

CITY           SKY/WX    TMP DP  RH WIND       PRES   REMARKS
LA CROSSE      LGT RAIN  50  48  93 NW15      29.40R
SPARTA         LGT RAIN  57  57 100 W3        29.38R
VIROQUA        CLOUDY    57  56  97 SW10      29.40R
BOSCOBEL       CLOUDY    59  55  87 SW10      29.42R
PRAIRIE DU CHI CLOUDY    55  52  88 SW8       29.43S
PLATTEVILLE    CLOUDY    57  57 100 W12       29.43S
$$

WIZ056-057-062-063-064-067-068-261800-
SOUTH CENTRAL WISCONSIN

CITY           SKY/WX    TMP DP  RH WIND       PRES   REMARKS
REEDSBURG      DRIZZLE   60  60 100 SW9       29.38S
BARABOO/DELLS  DRIZZLE   60  58  91 SW7       29.38S
LONE ROCK      NOT AVBL
MINERAL POINT  CLOUDY    61  61 100 SW14      29.41S
MADISON        LGT RAIN  60  58  92 SW7       29.40S
MIDDLETON      CLOUDY    61  58  91 S8        29.42R
WATERTOWN      DRIZZLE   58  58 100 SW12      29.41R
MONROE         CLOUDY    61  59  94 SW10      29.42F
JANESVILLE     CLOUDY    63  63 100 SW14      29.42F
$$

WIZ051-052-058>065-066-070>072-261800-
SOUTHEAST WISCONSIN

CITY           SKY/WX    TMP DP  RH WIND       PRES   REMARKS
MILWAUKEE      CLOUDY    64  60  87 SW12      29.43S
WAUKESHA       CLOUDY    59  57  94 S12       29.44R
MILWAUKEE/TIMM LGT RAIN  61  55  82 S9        29.43R
RACINE         CLOUDY    61  54  77 S3        29.45R
KENOSHA        CLOUDY    67  56  67 SW12G26   29.45R
FOND DU LAC    RAIN      61  57  87 S10       29.39R FOG
SHEBOYGAN      LGT RAIN  53  51  93 S15       29.41R FOG
WEST BEND      RAIN      61  59  94 S7        29.41R
JUNEAU         RAIN      58  57  96 S12       29.42R
$$

LSZ147-162-261800-
LAKE SUPERIOR

STATION/POSITION TIME  TEMP    WIND        PRES    WAVE
                       AIR SEA DIR/SP/G            HT/PER
                 (UTC) (F)     (DEG/KT/KT) (MB)    (FT/S)
DEVILS ISLAND    1600   32      40/ 30/ 34 1002.6F
PORT WING        1640   33      40/ 34/ 41 1001.7F
SAXON HARBOR     1640   34      50/ 25/ 30 1000.0F
$$

LMZ867-665-643>646-261800-
LAKE MICHIGAN

STATION/POSITION TIME  TEMP    WIND        PRES    WAVE
                       AIR SEA DIR/SP/G            HT/PER
                 (UTC) (F)     (DEG/KT/KT) (MB)    (FT/S)
CHAMBERS ISLAND  1640          140/  8/ 13  995.9F
N MID LAKE BUOY  1550   44 37  100/  8/ 10  998.4F   2/ 5
NORTHPORT PIER   1640   46     140/  7/ 10  996.3F
KEWAUNEE LAKESHO 1630   49     170/ 13/ 15  995.9R
SHEBOYGAN LAKESH 1600   45     170/ 11/ 12  995.9F
PORT WASHINGTON  1630   48     180/  6/  8  997.6R
MILWAUKEE LAKESH 1630   53     140/  6/  7   N/A
S MID LAKE BUOY  1550   49 41  120/ 10/ 12  997.0F   2/ 4
KENOSHA   LAKESH 1600   52     180/  9/ 14  997.0
$$

TC  - TEMPERATURE IN CELSIUS
VSB - VISIBILITY IN STATUTE MILES
WCI - WIND CHILL INDEX
HX  - HEAT INDEX





USA.gov is the U.S. government's official web portal to all federal, state and local government web resources and services.